TimeEST,TemperatureF,Dew PointF,Humidity,Sea Level PressureIn,VisibilityMPH,Wind Direction,Wind SpeedMPH,Gust SpeedMPH,PrecipitationIn,Events,Conditions,WindDirDegrees,DateUTC
12:15 AM,41.0,32.0,70,29.95,10.0,NW,5.8,-,N/A,,Overcast,320,2012-11-05 05:15:00
12:35 AM,41.0,32.0,70,29.95,10.0,NW,9.2,-,N/A,,Overcast,310,2012-11-05 05:35:00
12:55 AM,41.0,32.0,70,29.96,10.0,WNW,5.8,-,N/A,,Overcast,300,2012-11-05 05:55:00
1:15 AM,39.2,32.0,75,29.96,10.0,NW,9.2,-,N/A,,Mostly Cloudy,310,2012-11-05 06:15:00
1:35 AM,39.2,32.0,75,29.96,10.0,NW,5.8,-,N/A,,Mostly Cloudy,310,2012-11-05 06:35:00
1:55 AM,39.2,32.0,75,29.96,10.0,NW,5.8,-,N/A,,Mostly Cloudy,310,2012-11-05 06:55:00
2:15 AM,39.2,32.0,75,29.96,10.0,WNW,5.8,-,N/A,,Clear,290,2012-11-05 07:15:00
2:35 AM,37.4,30.2,75,29.96,10.0,WNW,4.6,-,N/A,,Clear,290,2012-11-05 07:35:00
2:55 AM,37.4,30.2,75,29.96,10.0,WNW,6.9,-,N/A,,Clear,300,2012-11-05 07:55:00
3:15 AM,37.4,30.2,75,29.96,10.0,WNW,4.6,-,N/A,,Mostly Cloudy,300,2012-11-05 08:15:00
3:35 AM,39.2,30.2,70,29.95,10.0,NW,6.9,-,N/A,,Overcast,310,2012-11-05 08:35:00
3:55 AM,39.2,30.2,70,29.96,10.0,WNW,4.6,-,N/A,,Overcast,300,2012-11-05 08:55:00
4:15 AM,39.2,30.2,70,29.96,10.0,NW,6.9,-,N/A,,Overcast,310,2012-11-05 09:15:00
4:35 AM,39.2,30.2,70,29.96,10.0,WNW,6.9,-,N/A,,Overcast,290,2012-11-05 09:35:00
4:55 AM,39.2,30.2,70,29.96,10.0,WNW,4.6,-,N/A,,Overcast,300,2012-11-05 09:55:00
5:15 AM,39.2,30.2,70,29.97,10.0,West,4.6,-,N/A,,Overcast,280,2012-11-05 10:15:00
5:35 AM,39.2,30.2,70,29.96,10.0,West,4.6,-,N/A,,Overcast,270,2012-11-05 10:35:00
5:55 AM,39.2,30.2,70,29.97,10.0,West,3.5,-,N/A,,Overcast,280,2012-11-05 10:55:00
6:15 AM,39.2,30.2,70,29.98,10.0,West,4.6,-,N/A,,Overcast,260,2012-11-05 11:15:00
6:35 AM,39.2,30.2,70,29.98,10.0,West,4.6,-,N/A,,Overcast,280,2012-11-05 11:35:00
7:15 AM,37.4,32.0,81,30.00,9.0,WNW,5.8,-,N/A,,Overcast,300,2012-11-05 12:15:00
7:35 AM,37.4,32.0,81,30.00,10.0,WNW,4.6,-,N/A,,Light Drizzle,300,2012-11-05 12:35:00
7:55 AM,37.4,32.0,81,30.00,10.0,West,6.9,-,N/A,,Overcast,280,2012-11-05 12:55:00
8:15 AM,37.4,32.0,81,30.01,10.0,NW,6.9,-,N/A,,Light Drizzle,310,2012-11-05 13:15:00
8:35 AM,39.2,32.0,75,30.01,10.0,WNW,4.6,-,N/A,,Overcast,300,2012-11-05 13:35:00
8:55 AM,39.2,30.2,70,30.01,10.0,WNW,9.2,-,N/A,,Overcast,300,2012-11-05 13:55:00
9:15 AM,39.2,30.2,70,30.00,10.0,NW,6.9,-,N/A,,Overcast,310,2012-11-05 14:15:00
9:35 AM,41.0,30.2,65,30.00,10.0,NW,9.2,-,N/A,,Overcast,320,2012-11-05 14:35:00
9:55 AM,41.0,28.4,61,30.00,10.0,NW,6.9,-,N/A,,Overcast,310,2012-11-05 14:55:00
10:15 AM,41.0,28.4,61,30.00,10.0,NW,8.1,-,N/A,,Overcast,310,2012-11-05 15:15:00
10:35 AM,41.0,28.4,61,29.99,10.0,NW,8.1,-,N/A,,Overcast,310,2012-11-05 15:35:00
10:55 AM,42.8,28.4,57,29.99,10.0,WNW,10.4,17.3,N/A,,Overcast,300,2012-11-05 15:55:00
11:15 AM,41.0,28.4,61,29.99,10.0,WNW,9.2,16.1,N/A,,Overcast,290,2012-11-05 16:15:00
11:35 AM,42.8,28.4,57,29.99,10.0,NNW,8.1,-,N/A,,Overcast,330,2012-11-05 16:35:00
11:55 AM,42.8,28.4,57,29.99,10.0,NW,6.9,-,N/A,,Overcast,310,2012-11-05 16:55:00
12:15 PM,42.8,28.4,57,29.99,10.0,NW,6.9,-,N/A,,Overcast,310,2012-11-05 17:15:00
12:35 PM,42.8,28.4,57,29.98,10.0,WNW,6.9,-,N/A,,Mostly Cloudy,300,2012-11-05 17:35:00
12:55 PM,42.8,28.4,57,29.98,10.0,WNW,9.2,-,N/A,,Mostly Cloudy,300,2012-11-05 17:55:00
1:15 PM,42.8,28.4,57,29.98,10.0,NW,6.9,-,N/A,,Mostly Cloudy,320,2012-11-05 18:15:00
1:35 PM,42.8,26.6,53,29.98,10.0,NNW,5.8,-,N/A,,Overcast,340,2012-11-05 18:35:00
1:55 PM,42.8,26.6,53,29.98,10.0,NNW,6.9,-,N/A,,Overcast,330,2012-11-05 18:55:00
2:15 PM,42.8,26.6,53,29.98,10.0,NNW,3.5,-,N/A,,Overcast,330,2012-11-05 19:15:00
2:35 PM,44.6,26.6,49,29.98,10.0,NNW,8.1,-,N/A,,Overcast,340,2012-11-05 19:35:00
2:55 PM,44.6,26.6,49,29.99,10.0,NNW,6.9,-,N/A,,Mostly Cloudy,330,2012-11-05 19:55:00
3:15 PM,42.8,26.6,53,29.99,10.0,NNW,6.9,-,N/A,,Partly Cloudy,330,2012-11-05 20:15:00
3:35 PM,42.8,26.6,53,30.00,10.0,NNW,4.6,-,N/A,,Clear,330,2012-11-05 20:35:00
3:55 PM,42.8,26.6,53,30.00,10.0,NNW,3.5,-,N/A,,Clear,330,2012-11-05 20:55:00
4:15 PM,42.8,28.4,57,30.01,10.0,NW,5.8,-,N/A,,Mostly Cloudy,320,2012-11-05 21:15:00
4:35 PM,42.8,26.6,53,30.02,10.0,WNW,8.1,-,N/A,,Overcast,290,2012-11-05 21:35:00
4:55 PM,42.8,23.0,46,30.02,10.0,WNW,6.9,-,N/A,,Overcast,300,2012-11-05 21:55:00
5:15 PM,41.0,24.8,53,30.03,10.0,WNW,6.9,-,N/A,,Mostly Cloudy,300,2012-11-05 22:15:00
5:35 PM,39.2,24.8,56,30.05,10.0,NW,9.2,-,N/A,,Partly Cloudy,310,2012-11-05 22:35:00
5:55 PM,39.2,23.0,52,30.06,10.0,WNW,6.9,-,N/A,,Clear,300,2012-11-05 22:55:00
6:15 PM,39.2,23.0,52,30.06,10.0,WNW,6.9,-,N/A,,Clear,300,2012-11-05 23:15:00
6:35 PM,39.2,23.0,52,30.07,10.0,WNW,6.9,-,N/A,,Clear,300,2012-11-05 23:35:00
6:55 PM,39.2,23.0,52,30.08,10.0,WNW,9.2,16.1,N/A,,Clear,300,2012-11-05 23:55:00
7:15 PM,37.4,21.2,52,30.09,10.0,NW,5.8,-,N/A,,Clear,310,2012-11-06 00:15:00
7:35 PM,37.4,21.2,52,30.09,10.0,NW,9.2,-,N/A,,Clear,310,2012-11-06 00:35:00
7:55 PM,37.4,23.0,56,30.10,10.0,WNW,6.9,-,N/A,,Clear,290,2012-11-06 00:55:00
8:15 PM,37.4,21.2,52,30.11,10.0,WNW,8.1,-,N/A,,Clear,300,2012-11-06 01:15:00
8:35 PM,37.4,21.2,52,30.11,10.0,WNW,8.1,-,N/A,,Clear,300,2012-11-06 01:35:00
8:55 PM,37.4,21.2,52,30.12,10.0,WNW,5.8,-,N/A,,Clear,290,2012-11-06 01:55:00
9:15 PM,35.6,19.4,52,30.12,10.0,WNW,6.9,-,N/A,,Clear,300,2012-11-06 02:15:00
9:35 PM,35.6,19.4,52,30.12,10.0,WNW,8.1,-,N/A,,Clear,300,2012-11-06 02:35:00
9:55 PM,35.6,19.4,52,30.12,10.0,WNW,8.1,-,N/A,,Clear,290,2012-11-06 02:55:00
10:15 PM,35.6,21.2,56,30.12,10.0,WNW,6.9,-,N/A,,Clear,290,2012-11-06 03:15:00
10:35 PM,35.6,21.2,56,30.13,10.0,West,5.8,-,N/A,,Clear,260,2012-11-06 03:35:00
10:55 PM,33.8,21.2,60,30.13,10.0,West,4.6,-,N/A,,Clear,260,2012-11-06 03:55:00
11:15 PM,33.8,21.2,60,30.13,10.0,West,5.8,-,N/A,,Clear,270,2012-11-06 04:15:00
11:35 PM,33.8,21.2,60,30.14,10.0,West,5.8,-,N/A,,Clear,280,2012-11-06 04:35:00
11:55 PM,32.0,21.2,64,30.14,10.0,West,4.6,-,N/A,,Clear,270,2012-11-06 04:55:00